DMSP 5D-2 F11 (USA 73)

导读

DMSP 5D-2 F11(USA 73)是美国国防气象卫星计划的气象观测卫星,由洛克希德·马丁系列企业研发,1991年11月28日于范登堡空军基地发射升空。它运行在倾角98.7°的太阳同步轨道,轨道高度约835公里,设计寿命5年,实际服役达22年。该卫星因航天器电池设计缺陷,于2004年解体,产生56块空间碎片,为卫星退役处置提供了参考案例。

Basic Information
目录编号:
21798
目录名称:
DMSP 5D-2 F11 (USA 73)
国际标识:
1991-082A
轨道中心:
EARTH
卫星名称:
DMSP 5D-2 F11 (USA 73)
卫星全名:
--
卫星状态:
在轨 (已飞行12620 天)
发射日期:
1991-11-28 UTC
国别 :
美国 (US)
星等 :
--
Orbit Information
数据来源 国际轨道数据 AOE轨道数据
星历时间 2026-06-17T19:42:24+0800
5小时前
查看轨道信息
2026-06-16T03:00:00+0800
1天前
查看轨道信息
半长轴 7212.129km 7212.143km
偏心率 0.0011205 0.0010857
轨道倾角 98.690° 98.692°
近地点辐角 270.135° 275.470°
升交点赤经 196.741° 195.083°
平近点角 89.855° 74.437°
近地点 825.91km 826.175km
远地点 842.074km 841.837km
周期 101.591分钟 101.591分钟
每日圈数 14.174494 14.174453
Detailed Information
使用方式:
暂无
2D Orbit Map
3D Orbit Map
Orbit Altitude Analysis Chart
Orbit Inclination Analysis Chart
Orbit Comprehensive Analysis Chart
View Comprehensive Chart